This is the latest recevied weather packets stored in our database for station/object N4HAC. If no packets are shown the sender has not sent any weather packets the latest 10 day(s).
| Time | Temp. | Humidity | Pressure | Rain* | Wind** | Luminosity | Snow |
|---|---|---|---|---|---|---|---|
| 1777557279 | 14.44° C | 68% | 1004.7 hPa | 0 mm | - | 135 W/m² | - |
| 1777556975 | 15° C | 71% | 1005 hPa | 0 mm | - | 266 W/m² | - |
| 1777556671 | 15° C | 68% | 1004.9 hPa | 0 mm | - | 584 W/m² | - |
| 1777556367 | 15° C | 69% | 1005 hPa | 0 mm | - | 282 W/m² | - |
| 1777556062 | 14.44° C | 68% | 1004.7 hPa | 0 mm | - | 471 W/m² | - |
| 1777555762 | 15° C | 69% | 1004.7 hPa | 0 mm | - | 475 W/m² | - |
| 1777555459 | 14.44° C | 71% | 1004.6 hPa | 0 mm | - | 464 W/m² | - |
| 1777555155 | 14.44° C | 72% | 1004.9 hPa | 0 mm | - | 454 W/m² | - |
| 1777554853 | 14.44° C | 71% | 1004.6 hPa | 0 mm | - | 444 W/m² | - |
| 1777554549 | 13.89° C | 73% | 1004.6 hPa | 0 mm | - | 437 W/m² | - |
| 1777554246 | 13.89° C | 73% | 1004.6 hPa | 0 mm | - | 255 W/m² | - |
| 1777553943 | 14.44° C | 71% | 1004.5 hPa | 0 mm | - | 171 W/m² | - |
| 1777553639 | 13.89° C | 74% | 1004.4 hPa | 0 mm | - | 403 W/m² | - |
| 1777553335 | 13.89° C | 74% | 1004.5 hPa | 0 mm | - | 172 W/m² | - |
| 1777553032 | 13.33° C | 76% | 1004.2 hPa | 0 mm | - | 296 W/m² | - |
| 1777552727 | 13.33° C | 78% | 1004.3 hPa | 0 mm | - | 134 W/m² | - |
| 1777552423 | 13.33° C | 80% | 1004.5 hPa | 0 mm | - | 113 W/m² | - |
| 1777552120 | 13.33° C | 82% | 1004.4 hPa | 0 mm | - | 211 W/m² | - |
| 1777551817 | 12.78° C | 82% | 1004.2 hPa | 0 mm | - | 114 W/m² | - |
| 1777551515 | 12.78° C | 83% | 1004.4 hPa | 0 mm | - | 115 W/m² | - |
| 1777551211 | 12.78° C | 86% | 1004 hPa | 0 mm | - | 104 W/m² | - |
| 1777550908 | 12.78° C | 87% | 1004.1 hPa | 0 mm | - | 143 W/m² | - |
| 1777550605 | 12.78° C | 86% | 1004.1 hPa | 0 mm | - | 95 W/m² | - |
| 1777550301 | 12.22° C | 88% | 1004 hPa | 0 mm | - | 86 W/m² | - |
| 1777549997 | 12.22° C | 89% | 1004 hPa | 0 mm | - | 52 W/m² | - |
* Rain latest hour (hover to see other rain measurements)
** Current wind speed in m/s (hover to see current wind gust speed)